Location: Aalen
(48.8330°N, 10.1000°E)
Time: 18:22:01
(UTC+02:00)

Transit 4A - Pass Details

Date: 04 August 2021
Orbit: 871 x 974 km, 66.8° (Epoch: 16 September)

Event Time Altitude Azimuth Distance (km) Brightness Sun altitude
Rises 06:23:40 0° 321° (NW) 3,469 10.7 3.1°
Reaches altitude 10° 06:27:03 10° 340° (NNW) 2,533 10.3 3.6°
Maximum altitude 06:30:54 18° 22° (NNE) 2,044 10.4 4.2°
Drops below altitude 10° 06:34:46 10° 63° (ENE) 2,551 12.9 4.8°
Sets 06:38:11 0° 83° (E) 3,505 12.9 5.3°
